This is the latest recevied weather packets stored in our database for station/object W9LRT-WX. If no packets are shown the sender has not sent any weather packets the latest 10 day(s).
| Time | Temp. | Humidity | Pressure | Rain* | Wind** | Luminosity | Snow |
|---|---|---|---|---|---|---|---|
| 1777768491 | 9.44° C | 48% | 1015.7 hPa | 0 mm | - | 7 W/m² | - |
| 1777767591 | 10° C | 47% | 1015.7 hPa | 0 mm | - | 16 W/m² | - |
| 1777766683 | 10° C | 45% | 1015.7 hPa | 0 mm | - | 26 W/m² | - |
| 1777765783 | 10.56° C | 42% | 1015.7 hPa | 0 mm | - | 69 W/m² | - |
| 1777764885 | 11.11° C | 42% | 1015.8 hPa | 0 mm | - | 132 W/m² | - |
| 1777763983 | 11.11° C | 41% | 1015.8 hPa | 0 mm | - | 190 W/m² | - |
| 1777763084 | 11.67° C | 39% | 1015.9 hPa | 0 mm | - | 248 W/m² | - |
| 1777762183 | 11.11° C | 40% | 1016.1 hPa | 0 mm | - | 301 W/m² | - |
| 1777761283 | 10.56° C | 41% | 1016.1 hPa | 0 mm | - | 352 W/m² | - |
| 1777760384 | 11.11° C | 39% | 1016.2 hPa | 0 mm | - | 397 W/m² | - |
| 1777759483 | 11.11° C | 39% | 1016.1 hPa | 0 mm | - | 448 W/m² | - |
| 1777758583 | 11.67° C | 41% | 1016.1 hPa | 0 mm | - | 496 W/m² | - |
| 1777757683 | 11.67° C | 38% | 1016 hPa | 0 mm | - | 540 W/m² | - |
| 1777756784 | 11.11° C | 40% | 1016.1 hPa | 0 mm | - | 584 W/m² | - |
| 1777755883 | 11.11° C | 37% | 1016.1 hPa | 0 mm | - | 628 W/m² | - |
| 1777754983 | 10.56° C | 40% | 1016.3 hPa | 0 mm | - | 666 W/m² | - |
| 1777754081 | 11.67° C | 36% | 1016.4 hPa | 0 mm | - | 701 W/m² | - |
| 1777753181 | 11.11° C | 41% | 1016.4 hPa | 0 mm | - | 742 W/m² | - |
| 1777752281 | 10.56° C | 42% | 1016.7 hPa | 0 mm | - | 773 W/m² | - |
| 1777751380 | 10° C | 42% | 1016.9 hPa | 0 mm | - | 821 W/m² | - |
| 1777750481 | 11.11° C | 42% | 1017 hPa | 0 mm | - | 835 W/m² | - |
| 1777749584 | 10° C | 40% | 1017 hPa | 0 mm | - | 902 W/m² | - |
| 1777748678 | 11.67° C | 40% | 1017.3 hPa | 0 mm | - | 874 W/m² | - |
| 1777747776 | 10.56° C | 46% | 1017.3 hPa | 0 mm | - | 904 W/m² | - |
| 1777746877 | 10° C | 42% | 1017.4 hPa | 0 mm | - | 935 W/m² | - |
* Rain latest hour (hover to see other rain measurements)
** Current wind speed in m/s (hover to see current wind gust speed)